Location: Bettgenhausen
(50.6463°N, 7.5681°E)
Time: 09:43:38
(UTC+00:00)

Cosmos 2279 Rocket - Pass Details

Date: 27 February 2020
Orbit: 964 x 979 km, 82.9° (Epoch: 09 April)

Event Time Altitude Azimuth Distance (km) Brightness Sun altitude
Exits shadow 20:40:08 60° 332° (NNW) 1,107 4.3 -33.4°
Drops below altitude 10° 20:45:23 10° 6° (N) 2,721 6.6 -34.1°
Sets 20:47:55 0° 9° (N) 3,670 7.3 -34.4°
